• In Belarus
  • List of Countries
  • For 7 days
  • Water Temperature
  • Satellite Maps
  • Weather Map
  • Weather Widgets
  • user-avatar
    Login

    Hourly Weather Hamilton

    Today, 19 January, Friday

    Time Temperature Precipitation Wind Pressure Humidity
    00:00 +20°C° 0 mm 3 mps 757 mmHg 98%
    01:00 +20°C° 0.7 mm 3 mps 757 mmHg 98%
    02:00 +20°C° 0.7 mm 3 mps 757 mmHg 98%
    03:00 +20°C° 0.7 mm 3 mps 757 mmHg 98%
    04:00 +20°C° 0.5 mm 3 mps 757 mmHg 98%
    05:00 +20°C° 0.5 mm 3 mps 757 mmHg 98%
    06:00 +20°C° 0 mm 3 mps 758 mmHg 98%
    07:00 +20°C° 0.5 mm 3 mps 758 mmHg 98%
    08:00 +20°C° 0.5 mm 3 mps 758 mmHg 98%
    09:00 +20°C° 0.5 mm 3 mps 758 mmHg 98%
    10:00 +21°C° 0.2 mm 3 mps 758 mmHg 95%
    11:00 +22°C° 0.2 mm 3 mps 759 mmHg 92%
    12:00 +24°C° 0 mm 2 mps 759 mmHg 90%
    13:00 +25°C° 0.3 mm 2 mps 759 mmHg 86%
    14:00 +26°C° 0.3 mm 2 mps 758 mmHg 82%
    15:00 +26°C° 0.3 mm 2 mps 758 mmHg 78%
    16:00 +26°C° 0.4 mm 2 mps 759 mmHg 78%
    17:00 +26°C° 0.4 mm 2 mps 759 mmHg 78%
    18:00 +25°C° 0 mm 2 mps 759 mmHg 81%
    19:00 +24°C° 0.1 mm 2 mps 759 mmHg 86%
    20:00 +21°C° 0.1 mm 2 mps 760 mmHg 91%
    21:00 +21°C° 0.1 mm 1 mps 760 mmHg 95%
    22:00 +21°C° 0 mm 1 mps 760 mmHg 96%
    23:00 +20°C° 0 mm 1 mps 760 mmHg 97%

    Tomorrow, 20 January, Saturday

    Time Temperature Precipitation Wind Pressure Humidity
    00:00 +20°C° 0 mm 1 mps 760 mmHg 98%
    01:00 +20°C° 0 mm 1 mps 760 mmHg 98%
    02:00 +20°C° 0 mm 1 mps 760 mmHg 99%
    03:00 +19°C° 0 mm 1 mps 760 mmHg 99%
    04:00 +19°C° 0 mm 1 mps 760 mmHg 99%
    05:00 +19°C° 0 mm 1 mps 760 mmHg 99%
    06:00 +20°C° 0 mm 1 mps 760 mmHg 99%
    07:00 +21°C° 0 mm 1 mps 761 mmHg 90%
    08:00 +23°C° 0 mm 1 mps 761 mmHg 82%
    09:00 +25°C° 0 mm 2 mps 761 mmHg 73%
    10:00 +26°C° 0 mm 2 mps 761 mmHg 68%
    11:00 +28°C° 0 mm 2 mps 761 mmHg 62%
    12:00 +29°C° 0 mm 2 mps 761 mmHg 57%
    13:00 +29°C° 0 mm 2 mps 760 mmHg 56%
    14:00 +30°C° 0 mm 2 mps 760 mmHg 54%
    15:00 +30°C° 0 mm 2 mps 760 mmHg 53%
    16:00 +29°C° 0 mm 2 mps 760 mmHg 57%
    17:00 +29°C° 0 mm 2 mps 760 mmHg 61%
    18:00 +28°C° 0 mm 2 mps 760 mmHg 64%
    19:00 +26°C° 0 mm 2 mps 760 mmHg 73%
    20:00 +24°C° 0 mm 1 mps 760 mmHg 81%
    21:00 +22°C° 0 mm 1 mps 761 mmHg 89%
    22:00 +21°C° 0 mm 1 mps 761 mmHg 92%
    23:00 +21°C° 0 mm 1 mps 761 mmHg 95%

    Day after tomorrow, 21 January, Sunday

    Time Temperature Precipitation Wind Pressure Humidity
    00:00 +20°C° 0 mm 1 mps 761 mmHg 98%
    01:00 +20°C° 0 mm 1 mps 761 mmHg 98%
    02:00 +20°C° 0 mm 1 mps 761 mmHg 98%
    03:00 +20°C° 0 mm 1 mps 761 mmHg 98%
    04:00 +20°C° 0 mm 1 mps 761 mmHg 98%
    05:00 +21°C° 0 mm 1 mps 761 mmHg 97%
    06:00 +21°C° 0 mm 1 mps 761 mmHg 97%
    07:00 +23°C° 0 mm 1 mps 761 mmHg 91%
    08:00 +24°C° 0 mm 1 mps 761 mmHg 85%
    09:00 +25°C° 0 mm 1 mps 761 mmHg 80%
    10:00 +26°C° 0.2 mm 1 mps 761 mmHg 76%
    11:00 +27°C° 0.2 mm 1 mps 761 mmHg 73%
    12:00 +28°C° 0.2 mm 2 mps 761 mmHg 69%
    13:00 +28°C° 1 mm 2 mps 760 mmHg 74%
    14:00 +28°C° 1 mm 2 mps 760 mmHg 79%
    15:00 +27°C° 1 mm 2 mps 760 mmHg 84%
    16:00 +27°C° 1 mm 1 mps 760 mmHg 85%
    17:00 +26°C° 1 mm 1 mps 760 mmHg 87%
    18:00 +25°C° 1 mm 1 mps 759 mmHg 88%
    19:00 +24°C° 0.5 mm 1 mps 760 mmHg 90%
    20:00 +23°C° 0.5 mm 1 mps 760 mmHg 92%
    21:00 +22°C° 0.5 mm 1 mps 760 mmHg 94%
    22:00 +22°C° 0.1 mm 1 mps 760 mmHg 95%
    23:00 +21°C° 0.1 mm 1 mps 760 mmHg 96%

    22 January, Monday

    Time Temperature Precipitation Wind Pressure Humidity
    00:00 +21°C° 0.1 mm 1 mps 760 mmHg 97%
    01:00 +21°C° 0.1 mm 1 mps 760 mmHg 97%
    02:00 +21°C° 0.1 mm 1 mps 759 mmHg 98%
    03:00 +20°C° 0.1 mm 1 mps 759 mmHg 98%
    04:00 +20°C° 0.2 mm 1 mps 759 mmHg 98%
    05:00 +20°C° 0.2 mm 1 mps 759 mmHg 99%
    06:00 +20°C° 0.2 mm 1 mps 759 mmHg 99%
    07:00 +21°C° 0.1 mm 1 mps 759 mmHg 97%
    08:00 +21°C° 0.1 mm 2 mps 759 mmHg 95%
    09:00 +21°C° 0.1 mm 2 mps 759 mmHg 93%
    10:00 +24°C° 0 mm 2 mps 759 mmHg 81%
    11:00 +26°C° 0 mm 2 mps 759 mmHg 70%
    12:00 +28°C° 0 mm 2 mps 758 mmHg 58%
    13:00 +28°C° 0.2 mm 2 mps 758 mmHg 62%
    14:00 +28°C° 0.2 mm 2 mps 758 mmHg 66%
    15:00 +27°C° 0.2 mm 2 mps 757 mmHg 70%
    16:00 +27°C° 0.3 mm 2 mps 757 mmHg 73%
    17:00 +26°C° 0.3 mm 2 mps 757 mmHg 77%
    18:00 +26°C° 0.3 mm 2 mps 757 mmHg 80%
    19:00 +24°C° 0.2 mm 2 mps 758 mmHg 85%
    20:00 +23°C° 0.2 mm 1 mps 758 mmHg 91%
    21:00 +22°C° 0.2 mm 1 mps 758 mmHg 96%
    22:00 +21°C° 0.1 mm 1 mps 758 mmHg 97%
    23:00 +21°C° 0.1 mm 1 mps 758 mmHg 98%

    23 January, Tuesday

    Time Temperature Precipitation Wind Pressure Humidity
    00:00 +21°C° 0.1 mm 1 mps 758 mmHg 98%
    01:00 +21°C° 0.3 mm 1 mps 758 mmHg 98%
    02:00 +21°C° 0.3 mm 1 mps 757 mmHg 98%
    03:00 +21°C° 0.3 mm 1 mps 757 mmHg 99%
    04:00 +21°C° 0 mm 1 mps 757 mmHg 99%
    05:00 +21°C° 0 mm 1 mps 757 mmHg 99%
    06:00 +21°C° 0 mm 1 mps 757 mmHg 98%
    07:00 +22°C° 0 mm 1 mps 758 mmHg 93%
    08:00 +24°C° 0 mm 1 mps 758 mmHg 88%
    09:00 +26°C° 0 mm 1 mps 758 mmHg 82%
    10:00 +26°C° 1.5 mm 1 mps 758 mmHg 84%
    11:00 +26°C° 1.5 mm 1 mps 758 mmHg 85%
    12:00 +27°C° 1.5 mm 1 mps 757 mmHg 87%
    13:00 +27°C° 2 mm 2 mps 757 mmHg 87%
    14:00 +27°C° 2 mm 2 mps 757 mmHg 87%
    15:00 +27°C° 2 mm 2 mps 757 mmHg 86%
    16:00 +27°C° 1.3 mm 2 mps 757 mmHg 87%
    17:00 +26°C° 1.3 mm 2 mps 757 mmHg 88%
    18:00 +26°C° 1.3 mm 2 mps 757 mmHg 89%
    19:00 +24°C° 0.5 mm 2 mps 757 mmHg 92%
    20:00 +23°C° 0.5 mm 1 mps 757 mmHg 95%
    21:00 +22°C° 0.5 mm 1 mps 758 mmHg 98%
    22:00 +21°C° 0 mm 1 mps 758 mmHg 98%
    23:00 +21°C° 0 mm 1 mps 758 mmHg 98%

    24 January, Wednesday

    Time Temperature Precipitation Wind Pressure Humidity
    00:00 +20°C° 0 mm 1 mps 758 mmHg 98%
    01:00 +20°C° 0 mm 1 mps 757 mmHg 98%
    02:00 +19°C° 0 mm 1 mps 757 mmHg 98%
    03:00 +19°C° 0 mm 1 mps 757 mmHg 98%
    04:00 +19°C° 0 mm 1 mps 757 mmHg 98%
    05:00 +19°C° 0 mm 1 mps 758 mmHg 99%
    06:00 +19°C° 0 mm 1 mps 758 mmHg 99%
    07:00 +21°C° 0 mm 1 mps 758 mmHg 90%
    08:00 +23°C° 0 mm 1 mps 758 mmHg 81%
    09:00 +25°C° 0 mm 2 mps 759 mmHg 72%
    10:00 +26°C° 0 mm 2 mps 758 mmHg 65%
    11:00 +28°C° 0 mm 3 mps 758 mmHg 57%
    12:00 +29°C° 0 mm 3 mps 758 mmHg 50%
    13:00 +29°C° 0 mm 4 mps 758 mmHg 50%
    14:00 +30°C° 0 mm 4 mps 757 mmHg 50%
    15:00 +30°C° 0 mm 4 mps 757 mmHg 51%
    16:00 +29°C° 0 mm 4 mps 757 mmHg 57%
    17:00 +28°C° 0 mm 4 mps 757 mmHg 62%
    18:00 +27°C° 0 mm 3 mps 757 mmHg 68%
    19:00 +25°C° 0 mm 3 mps 758 mmHg 77%
    20:00 +23°C° 0 mm 2 mps 758 mmHg 86%
    21:00 +20°C° 0 mm 2 mps 759 mmHg 95%
    22:00 +20°C° 0 mm 1 mps 759 mmHg 96%
    23:00 +20°C° 0 mm 1 mps 759 mmHg 97%
    Show more